User: anonymous   Login
Location: Fort Wayne
(41.1310°N, 85.1290°W)
Time: 04:10:38
(UTC-05:00)
Language:

SL-08 RB Rocket - Orbit

View from above orbital plane
View from above orbital plane
View from above satellite
View from above satellite

Ground track
Ground track

The orbit data is extracted from the following two-line orbital elements,

1 26387U 00033D   14328.19875622  .00000718  00000-0  13455-3 0  6691
2 26387 098.0887 034.0508 0027879 068.8848 351.5961 14.67530648770551
Epoch (UTC): 24 November 2014 04:46:12
Eccentricity: 0.0027879
inclination: 98.0887°
perigee height: 649 km
apogee height: 688 km
right ascension of ascending node: 34.0508°
argument of perigee: 68.8848°
revolutions per day: 14.67530648
mean anomaly at epoch: 351.5961°
orbit number at epoch: 77055

The dashed part of the orbit path shows where the satellite is in the earth's shadow,  

DLR